www.pogodaiklimat.ru

Погода и климат >> Архив погоды >> Того >> Ломе


ПОГОДА в Ломе

  • Прогноз погоды в Ломе
  • Монитор погоды в Ломе

АРХИВ ПОГОДЫ в Ломе

Время (UTC), дата Ветер
(напр.,м/с)
 
Видим.   Явления Облачность Т
(С)
Тd
(С)
f
(%)
Тe
(С)
Тes
(С)
Комфортность P
(гПа)
Po
(гПа)
Тmin
(С)
Tmax
(С)
R
(мм)
R24
(мм)
S
(см)
18 18.08 ЮЗ 7 10 км 9/3 400 м
[Cu med, cong Ac lent Ci sp]
+26.7 +24.3 87 +37 +37 очень
душно
1010.6 1008.0 +30.5
00 19.08 ЮЗ 6 10 км 9/5 300 м
[Sc Ci sp]
+25.7 +24.0 90 +35 +35 очень
душно
1012.8 1010.2
06 19.08 ЮЗ 5 10 км 9/5 300 м
[Cu Sc Ac lent]
+25.6 +23.9 90 +35 +35 очень
душно
1012.5 1009.9 +21.3
12 19.08 ЮЗ 8 12 км 9/4 480 м
[Cu med, cong Ac trans Ci sp]
+29.7 +24.1 72 +41 +42 опасность
перегрева
1013.3 1010.7
18 19.08 Ю 6 10 км 9/4 400 м
[Sc Ac und Ci sp]
+26.5 +23.9 86 +37 +37 очень
душно
1011.3 1008.7 +30.0
00 20.08 ЮЗ 7 10 км 9/9 300 м
[Cu Sc]
+25.6 +23.4 88 +35 +35 очень
душно
1012.4 1009.8
06 20.08 ЮЗ 5 10 км 9/5 300 м
[Cu Sc Ac As]
+25.5 +23.3 88 +34 +34 очень
душно
1012.6 1010.0 +25.2
12 20.08 ЮЗ 7 12 км 9/3 400 м
[Cu med, cong Ac trans Ci sp]
+29.2 +23.9 73 +40 +43 очень
душно
1013.3 1010.7
18 20.08 ЮЗ 6 10 км 9/3 400 м
[Cu med, cong Ac trans]
+26.5 +23.9 86 +37 +37 очень
душно
1012.1 1009.4
00 21.08 ЮЗ 5 10 км 9/4 300 м
[Sc Ci sp]
+25.5 +24.1 92 +35 +35 очень
душно
1014.3 1011.7
06 21.08 З 2 10 км 9/4 300 м
[Sc Ac trans Ci sp]
+25.1 +23.5 91 +34 +34 очень
душно
1014.1 1011.5 +25.0
12 21.08 Ю 6 10 км 9/4 400 м
[Cu med, cong Ci sp]
+28.1 +23.8 78 +39 +43 очень
душно
1014.4 1011.8
18 21.08 Ю 5 10 км 9/4 300 м
[Cu Sc Ac trans Ci sp]
+26.6 +23.6 84 +36 +36 очень
душно
1012.2 1009.6 +29.2
00 22.08 ЮЗ 6 10 км 9/4 300 м
[Sc Ci sp]
+25.5 +23.5 89 +35 +35 очень
душно
1013.1 1010.5
06 22.08 ЮЗ 5 10 км 9/4 300 м
[Sc Ac und]
+25.7 +23.2 86 +34 +34 очень
душно
1013.7 1011.0 +25.0
12 22.08 Ю 8 12 км 9/4 480 м
[Cu med, cong Ac trans Ci sp]
+30.2 +25.3 75 +44 +45 опасность
перегрева
1013.8 1011.2
18 22.08 ЮЗ 6 10 км 9/3 400 м
[Cu med, cong Ac lent Ci sp]
+26.3 +24.1 88 +37 +37 очень
душно
1012.1 1009.5 +30.2
00 23.08 ЮЗ 7 10 км 9/9 300 м
[Cu Sc]
+25.7 +24.1 91 +36 +36 очень
душно
1013.9 1011.3
06 23.08 ЮЗ 6 10 км 9/1 300 м
[Cu med, cong Ac As Ci sp]
+25.2 +22.9 87 +33 +33 очень
душно
1014.3 1011.7 +21.1
12 23.08 Ю 8 10 км 9/9 480 м
[Cu med, cong]
+28.0 +24.3 80 +39 +40 очень
душно
1014.6 1012.0
18 23.08 ЮЗ 9 10 км 9/4 400 м
[Sc Ac lent Ci sp]
+26.7 +23.7 84 +37 +37 очень
душно
1013.0 1010.4 +29.5
00 24.08 ЮЗ 6 10 км 9/5 300 м
[Sc Ci sp]
+25.7 +24.0 90 +35 +35 очень
душно
1015.0 1012.4
06 24.08 ЮЗ 2 8000 м 10/10 300 м
[Cu Sc]
+24.7 +23.4 92 +33 +33 очень
душно
1014.4 1011.8 +24.5
12 24.08 ЮЗ 6 10 км 9/9 400 м
[Cu Sc]
+27.5 +24.4 83 +39 +39 очень
душно
1014.8 1012.2
18 24.08 ЮЗ 6 10 км 9/1 300 м
[Sc Ac lent Ci sp]
+26.2 +23.6 86 +36 +36 очень
душно
1014.2 1011.6 +29.1
00 25.08 ЮЗ 5 10 км 9/5 300 м
[Sc Ci sp]
+25.4 +24.3 94 +35 +35 очень
душно
1015.8 1013.2
06 25.08 ЮЗ 4 8000 м {дождь} н/о +25.5 +24.1 92 +35 +35 очень
душно
1015.0 1012.4 +25.0 0.0
12 25.08 ЮЗ 6 10 км 9/5 400 м
[Cu Sc Ac und]
+28.4 +24.6 80 +40 +42 очень
душно
1014.9 1012.2

 

Местоположение метеостанции Ломе (Того): широта 6.17 долгота 1.25 высота над уровнем моря 25 м.

В архиве по умолчанию представлена погода в Ломе за последнюю неделю. Архивные данные за месяц целиком и за предыдущие месяцы, начиная с января 2011 года, Вы можете получить, выбрав интересующий диапазон дат из раскрывающегося списка и нажав кнопку "Ввод!".


*Определитесь, кто Вы:
робот инопланетянин человек

Внимание! Время в таблицах - всемирное. Для получения местного времени необходимо прибавить поправку, которая равна 0 ч.

Смотрите также архив погоды в соседних городах и на ближайших метеорологических станциях:

Погода в Акатзи (Гана) (50 км)
Погода в Таблигбо (Того) (53 км)
Погода в Ада (Гана) (81 км)
Погода в Хо (Гана) (99 км)
Погода в Акюсе (Гана) (125 км)
Погода в Котону (Бенин) (127 км)
Погода в Боиконе (Бенин) (143 км)
Погода в Тема (Гана) (151 км)
Погода в Атакпаме (Того) (157 км)
Погода в Кофоридуа (Гана) (166 км)

Пояснения к столбцам:

Ветер - указаны скорость ветра в м/с - средняя за 10 мин, порывы в срок и между сроками (в фигурных скобках) и направление, откуда дует ветер: С - северный, СВ - северо-восточный, В - восточный, ЮВ - юго-восточный, Ю - южный, ЮЗ - юго-западный, З - западный, СЗ - северо-западный.
Видимость - горизонтальная дальность видимости в метрах или километрах. При видимости от 1 до 10 км при отсутствии осадков обычно наблюдается дымка, при ухудшении видимости до 1 км и менее - туман. В сухую погоду видимость может ухудшаться дымом, пылью или мглою.
Явления - указаны атмосферные явления, наблюдавшиеся в срок или в последний час перед сроком; фигурными скобками обозначены явления, наблюдавшиеся между сроками (за 1-3 часа до срока); квадратными скобками обозначены град или гололедные отложения с указанием их диаметра в мм.
Облачность - указаны через наклонную черту общая и нижняя облачность в баллах и высота нижней границы облаков в метрах; квадратными скобками обозначены формы облаков: Ci - перистые, Cs - перисто-слоистые, Cc - перисто-кучевые, Ac - высококучевые, As - высокослоистые, Sc - слоисто-кучевые, Ns - слоисто-дождевые, Cu - кучевые, Cb - кучево-дождевые. Подробнее классификацию облаков см. в Атласе облаков (PDF).
T - Температура воздуха - температура, измеренная на высоте 2 м над землей.
Td - Температура точки росы - температура, при понижении до которой содержащийся в воздухе водяной пар достигнет насыщения.
f - Относительная влажность воздуха - влажноcть воздуха, измеренная на высоте 2 м над землей.
Te - Эффективная температура - температура, которую ощущает одетый по сезону человек в тени. Характеристика душности погоды. При расчете учитывается влияние влажности воздуха и скорости ветра на теплоощущения человека.
Tes - Эффективная температура на солнце - температура, которую ощущает человек, с поправкой на солнечный нагрев. Характеристика знойности погоды. Зависит от высоты солнца над горизонтом, облачности и скорости ветра. Ночью, в пасмурную погоду, а также при ветре 12 м/с и более поправка равна нулю.
P - Атмосферное давление - приведенное к уровню моря атмосферное давление.
Po - Атмосферное давление - измеренное на уровне метеостанции атмосферное давление.
Tmin - Минимальная температура - минимум температуры воздуха на высоте 2 м над землей.
Tmax - Максимальная температура - максимум температуры воздуха на высоте 2 м над землей.
R - Количество осадков - Количество выпавших осадков за период времени, мм. При наведении курсора мыши на число - период времени, за который выпало указанное количество осадков.
R24 - Количество осадков - Количество выпавших осадков за 24 часа, мм.
S - Снежный покров - Высота снежного покрова, см. При наведении курсора мыши на число - состояние снежного покрова и степень покрытия местности в баллах.